Tracking 32991 objects as of 22-Jan-2026
HD Live streaming from Space Station
objects crossing your sky now

EKRAN 1

Track EKRAN 1 now!
EKRAN 1 is classified as:


NORAD ID: 9503
Int'l Code: 1976-107A
Perigee: 35,517.9 km
Apogee: 36,079.4 km
Inclination: 3.9 °
Period: 1,436.3 minutes
Semi major axis: 42169 km
RCS: 3.5481 m2 (large)
Launch date: October 26, 1976
Source: Commonwealth of Independent States (former USSR) (CIS)
Launch site: TYURATAM MISSILE AND SPACE COMPLEX (TTMTR)
Your satellite tracking list
Your tracking list is empty




NASA's NSSDC Master Catalog

Two Line Element Set (TLE):
1  9503U 76107A   26022.31021933 -.00000257  00000-0  00000+0 0  9996
2  9503   3.9431 272.3435 0066580 183.9271 233.1142  1.00254333197050
Source of the keplerian elements: AFSPC